Location: Home
(42.5358°N, 72.7383°W)
Time: 19:09:12
(UTC-05:00)

Transit 4A - Pass Details

Date: 02 December 2021
Orbit: 863 x 981 km, 66.8° (Epoch: 23 January)

Event Time Altitude Azimuth Distance (km) Brightness Sun altitude
Rises 21:45:58 0° 275° (W) 3,486 - -58.6°
Reaches altitude 10° 21:50:00 10° 302° (WNW) 2,575 - -59.2°
Maximum altitude 21:52:44 13° 329° (NNW) 2,370 - -59.6°
Drops below altitude 10° 21:55:30 10° 357° (N) 2,615 - -60.1°
Sets 21:59:42 0° 24° (NNE) 3,591 - -60.7°
